Regional Weather Roundup
Issued by NWS State College, PA

Home | Current Version | Previous Version | Graphics & Text | Print | Product List | Glossary On
Versions: 1 2 3 4 5 6 7 8 9 10 11 12 13 14 15 16 17 18 19 20 21 22 23 24 25 26 27 28 29 30 31 32 33 34 35 36 37 38 39 40 41 42 43 44 45 46 47 48 49 50
000
ASUS41 KCTP 301810
RWRCTP

REGIONAL WEATHER ROUNDUP
NATIONAL WEATHER SERVICE STATE COLLEGE PA
200 PM EDT SAT MAY 30 2015

Note: "fair" indicates few or no clouds below 12,000 feet with no
significant weather and/or obstructions to visibility.

* = STATION THAT DOES NOT REPORT PRECIPITATION /E.G. RAIN...SNOW...ETC/
    THUNDER OR FOG.

PAZ002>004-007>009-013>016-020>023-029>032-301900-
WESTERN PENNSYLVANIA

CITY           SKY/WX    TMP DP  RH WIND       PRES   REMARKS
ERIE           MOSUNNY   81  66  60 S6        30.00F
MEADVILLE      CLOUDY    79  64  60 SW7G17    30.05F
FRANKLIN*      PTSUNNY   79  63  57 SW14G20   30.08S
NEW CASTLE     TSTM      76  70  82 S10G18    30.08R
BEAVER COUNTY  LGT RAIN  73  66  78 S9        30.09R
BUTLER*        PTSUNNY   82  64  54 SW14G20   30.09S
PITTSBURGH INT PTSUNNY   75  68  78 SW7       30.10R THUNDER
PITTSBURGH     PTSUNNY   82  60  47 SW14G22   30.07F
INDIANA*       MOSUNNY   82  66  57 SW12G21   30.12F
LATROBE        PTSUNNY   82  64  54 SW12G23   30.11F
WASHINGTON CO* MOSUNNY   79  66  65 SW7       30.11F
$$

PAZ004>006-010>012-017>019-024>028-033>037-041-042-045-046-049>053-301900-
CENTRAL PENNSYLVANIA

CITY           SKY/WX    TMP DP  RH WIND       PRES   REMARKS
BRADFORD       MOSUNNY   78  62  57 SW14G21   30.09F
DUBOIS         MOSUNNY   81  67  62 S9        30.09F
CLEARFIELD     MOSUNNY   84  61  45 SW12      30.09F
JOHNSTOWN      SUNNY     79  60  52 SW12G21   30.14F
ALTOONA        MOSUNNY   82  64  54 SW10G18   30.12F
STATE COLLEGE  PTSUNNY   81  66  61 CALM      30.10F
WILLIAMSPORT   MOSUNNY   82  68  62 SE9       30.05F
SELINSGROVE    LGT RAIN  84  66  54 S9        30.08F
FT INDIANTOWN  MOSUNNY   85  67  54 SW12      30.10F
CAPITAL CITY   MOSUNNY   85  66  53 S17       30.09F
HARRISBURG     PTSUNNY   85  65  51 SW13G23   30.09F
YORK           MOSUNNY   84  67  56 S12G18    30.11F
$$

PAZ038>040-043-044-047-048-054-055-060>062-067>071-301900-
EASTERN PENNSYLVANIA

CITY           SKY/WX    TMP DP  RH WIND       PRES   REMARKS
SCRANTON       PTSUNNY   83  64  52 S9G21     30.09F
MOUNT POCONO   MOSUNNY   78  64  61 S12G21    30.19F
ALLENTOWN      PTSUNNY   87  65  47 S15       30.11F
QUAKERTOWN*    PTCLDY    84  66  54 S12G18    30.14F
READING        PTSUNNY   88  65  46 S13G21    30.09F
LANCASTER      PTSUNNY   85  65  51 SW13      30.11F
COATESVILLE    CLEAR     82  64  54 S7        30.15F
POTTSTOWN      MOSUNNY   85  65  51 S12G17    30.14F
BLUE BELL      PTSUNNY   84  68  58 S9        30.13F
DOYLESTOWN     MOSUNNY   82  64  54 S14G21    30.13F
WILLOW GROVE   NOT AVBL
NORTH PHILA    MOSUNNY   86  64  47 S12G18    30.15F
PHILADELPHIA   MOSUNNY   85  66  53 S12       30.14F
$$


USA.gov is the U.S. government's official web portal to all federal, state and local government web resources and services.